period_start,C,m1,H,J0,J1,J2,J3,J4,J5,JA,JB,JC,JD,JJ,JK,JN,#
2014-09-22 00:00:54,0.03,0.59,0.00,22.77,26.59,29.16,9.47,40.27,1004.29,2041.00,3160.33,3177.74,3417.00,499.46,490.45,24.50,0000 0000 0000 0000 000000
2014-09-22 00:05:55,0.01,0.59,0.00,22.78,26.60,29.16,9.50,40.26,1004.33,2041.00,3160.00,3177.21,3416.98,500.05,491.13,24.54,0000 0000 0000 0000 000000
2014-09-22 00:10:56,0.03,0.59,0.00,22.79,26.60,29.16,9.44,40.31,1004.31,2041.00,3159.67,3177.02,3416.32,499.76,490.92,24.58,0000 0000 0000 0000 000000
2014-09-22 00:15:57,0.01,0.60,0.00,22.80,26.62,29.18,9.46,40.33,1004.20,2041.00,3159.05,3176.94,3416.00,500.07,490.89,24.62,0000 0000 0000 0000 000000
2014-09-22 00:20:59,0.03,0.60,0.00,22.81,26.62,29.17,9.45,40.42,1004.14,2041.00,3158.94,3176.35,3415.92,499.56,490.49,24.67,0000 0000 0000 0000 000000
2014-09-22 00:26:00,0.03,0.60,0.00,22.83,26.63,29.17,9.44,40.34,1004.16,2041.00,3158.29,3176.02,3415.40,499.87,490.83,24.71,0000 0000 0000 0000 000000
2014-09-22 00:31:01,0.00,0.60,0.00,22.81,26.65,29.19,9.43,40.15,1004.18,2041.00,3158.00,3175.98,3415.00,499.61,490.57,24.75,0000 0000 0000 0000 000000
2014-09-22 00:36:02,0.01,0.60,0.00,22.84,26.65,29.20,9.45,40.33,1004.22,2041.00,3157.77,3175.78,3414.95,500.01,490.79,24.79,0000 0000 0000 0000 000000
2014-09-22 00:41:03,0.04,0.60,0.00,22.85,26.65,29.20,9.46,40.28,1004.20,2041.00,3157.07,3175.10,3414.27,499.96,490.74,24.83,0000 0000 0000 0000 000000
2014-09-22 00:46:04,-0.00,0.60,0.00,22.85,26.67,29.21,9.48,40.33,1004.11,2040.98,3156.98,3175.00,3414.00,500.15,490.94,24.88,0000 0000 0000 0000 000000
2014-09-22 00:51:06,0.03,0.60,0.00,22.85,26.67,29.21,9.49,40.33,1003.99,2040.98,3156.33,3174.78,3413.86,499.82,490.59,24.92,0000 0000 0000 0000 000000
2014-09-22 00:56:07,0.03,0.60,0.00,22.86,26.67,29.21,9.43,40.33,1003.95,2040.98,3156.00,3174.08,3413.30,499.51,490.25,24.96,0000 0000 0000 0000 000000
2014-09-22 01:01:09,0.01,0.60,0.00,22.85,26.67,29.21,9.46,40.38,1003.95,2040.96,3155.57,3174.00,3413.01,500.28,491.11,25.00,0000 0000 0000 0000 000000
2014-09-22 01:06:10,0.01,0.61,0.00,22.85,26.67,29.22,9.47,40.38,1003.98,2040.96,3155.04,3173.98,3412.95,500.40,491.24,25.04,0000 0000 0000 0000 000000
2014-09-22 01:11:11,0.03,0.61,0.00,22.85,26.67,29.22,9.48,40.33,1004.10,2040.98,3154.98,3173.67,3412.56,499.77,490.54,25.09,0000 0000 0000 0000 000000
2014-09-22 01:16:12,0.03,0.61,0.00,22.84,26.68,29.22,9.52,40.35,1004.13,2040.94,3154.32,3173.07,3412.03,500.32,491.10,25.13,0000 0000 0000 0000 000000
2014-09-22 01:21:13,0.00,0.61,0.00,22.85,26.68,29.22,9.44,40.20,1004.17,2040.92,3154.01,3173.00,3412.00,500.06,491.00,25.17,0000 0000 0000 0000 000000
2014-09-22 01:26:14,-0.00,0.61,0.00,22.86,26.69,29.21,9.52,40.40,1004.11,2040.89,3153.95,3172.99,3411.90,500.00,490.89,25.21,0000 0000 0000 0000 000000
2014-09-22 01:31:16,0.05,0.61,0.00,22.85,26.69,29.21,9.43,40.14,1004.03,2040.90,3153.20,3172.59,3411.20,500.08,490.80,25.25,0000 0000 0000 0000 000000
2014-09-22 01:36:17,-0.00,0.61,0.00,22.90,26.70,29.22,9.49,40.17,1003.96,2040.81,3153.00,3172.03,3411.00,499.99,490.78,25.29,0000 0000 0000 0000 000000
2014-09-22 01:41:18,0.01,0.61,0.00,22.90,26.69,29.25,9.50,40.08,1003.96,2040.76,3152.61,3172.00,3410.96,500.12,490.84,25.34,0000 0000 0000 0000 000000
2014-09-22 01:46:20,0.00,0.61,0.00,22.82,26.69,29.27,9.50,40.19,1003.93,2040.61,3152.02,3171.93,3410.37,500.42,491.19,25.38,0000 0000 0000 0000 000000
2014-09-22 01:51:21,0.03,0.61,0.00,22.80,26.69,29.25,9.41,40.27,1003.92,2040.70,3151.97,3171.49,3410.02,499.71,490.49,25.42,0000 0000 0000 0000 000000
2014-09-22 01:56:22,-0.01,0.61,0.00,22.82,26.69,29.25,9.47,40.22,1003.92,2040.53,3151.45,3171.03,3409.99,500.12,490.98,25.46,0000 0000 0000 0000 000000
2014-09-22 02:01:23,0.03,0.61,0.00,22.82,26.69,29.27,9.51,40.21,1003.93,2040.60,3151.01,3171.00,3409.81,500.18,490.66,25.50,0000 0000 0000 0000 000000
2014-09-22 02:06:24,0.03,0.61,0.00,22.81,26.70,29.27,9.43,40.27,1003.94,2040.72,3150.88,3170.97,3409.23,499.69,490.54,25.55,0000 0000 0000 0000 000000
2014-09-22 02:11:25,0.03,0.62,0.00,22.81,26.70,29.25,9.45,40.23,1003.94,2040.73,3150.19,3170.67,3409.00,499.92,490.82,25.59,0000 0000 0000 0000 000000
2014-09-22 02:16:26,0.02,0.62,0.00,22.81,26.69,29.25,9.46,40.23,1003.93,2040.79,3149.99,3170.12,3408.97,500.03,490.74,25.63,0000 0000 0000 0000 000000
2014-09-22 02:21:28,0.02,0.62,0.00,22.80,26.69,29.25,9.50,40.26,1003.92,2040.77,3149.72,3170.01,3408.55,499.99,490.79,25.67,0000 0000 0000 0000 000000
2014-09-22 02:26:29,0.02,0.62,0.00,22.80,26.68,29.24,9.48,40.11,1003.94,2040.78,3149.06,3169.98,3408.04,500.04,490.81,25.71,0000 0000 0000 0000 000000
2014-09-22 02:31:30,0.02,0.62,0.00,22.82,26.68,29.26,9.39,40.16,1003.93,2040.83,3148.89,3169.66,3408.00,499.48,490.37,25.76,0000 0000 0000 0000 000000
2014-09-22 02:36:31,0.03,0.62,0.00,22.87,26.68,29.24,9.47,40.25,1003.94,2040.88,3148.17,3169.11,3407.82,499.94,490.82,25.80,0000 0000 0000 0000 000000
2014-09-22 02:41:32,0.01,0.62,0.00,22.88,26.67,29.22,9.42,40.23,1003.94,2040.91,3148.00,3169.00,3407.13,499.58,490.25,25.84,0000 0000 0000 0000 000000
2014-09-22 02:46:33,0.01,0.62,0.00,22.91,26.67,29.21,9.38,40.15,1003.94,2040.90,3147.80,3169.00,3407.01,499.55,490.20,25.88,0000 0000 0000 0000 000000
2014-09-22 02:51:34,0.01,0.62,0.00,22.89,26.67,29.23,9.48,40.33,1003.95,2040.88,3147.08,3168.79,3406.98,499.92,490.63,25.92,0000 0000 0000 0000 000000
2014-09-22 02:56:35,0.05,0.62,0.00,22.86,26.67,29.24,9.48,40.33,1003.94,2040.93,3146.95,3168.18,3406.42,499.94,490.59,25.96,0000 0000 0000 0000 000000
2014-09-22 03:01:36,0.02,0.63,0.00,22.79,26.67,29.25,9.48,40.39,1003.94,2040.96,3146.27,3168.02,3406.03,500.50,491.36,26.01,0000 0000 0000 0000 000000
2014-09-22 03:06:37,0.00,0.63,0.00,22.81,26.66,29.23,9.41,40.18,1003.94,2040.93,3146.05,3168.00,3406.00,499.92,490.74,26.05,0000 0000 0000 0000 000000
2014-09-22 03:11:39,0.00,0.63,0.00,22.86,26.65,29.21,9.49,40.33,1003.95,2040.95,3145.99,3167.99,3405.98,500.21,490.94,26.09,0000 0000 0000 0000 000000
2014-09-22 03:16:40,0.05,0.63,0.00,22.91,26.65,29.21,9.43,40.31,1003.94,2040.94,3145.26,3167.56,3405.39,499.71,490.36,26.13,0000 0000 0000 0000 000000
2014-09-22 03:21:41,0.01,0.63,0.00,22.87,26.65,29.21,9.51,40.33,1003.94,2040.96,3144.97,3167.03,3405.00,500.30,491.11,26.17,0000 0000 0000 0000 000000
2014-09-22 03:26:42,0.02,0.63,0.00,22.83,26.65,29.21,9.46,40.38,1003.93,2040.95,3144.56,3167.00,3404.95,500.07,490.88,26.22,0000 0000 0000 0000 000000
2014-09-22 03:31:44,0.01,0.63,0.00,22.86,26.65,29.20,9.46,40.33,1003.92,2040.96,3144.02,3166.96,3404.53,500.02,490.84,26.26,0000 0000 0000 0000 000000
2014-09-22 03:36:45,0.03,0.63,0.00,22.89,26.65,29.20,9.39,40.27,1003.92,2040.98,3143.95,3166.50,3404.09,499.89,490.56,26.30,0000 0000 0000 0000 000000
2014-09-22 03:41:46,0.01,0.63,0.00,22.87,26.65,29.23,9.50,40.24,1003.92,2040.99,3143.74,3166.06,3404.00,500.18,490.74,26.34,0000 0000 0000 0000 000000
2014-09-22 03:46:47,0.00,0.63,0.00,22.90,26.64,29.25,9.45,40.27,1003.92,2040.97,3143.61,3166.00,3404.00,500.40,491.07,26.38,0000 0000 0000 0000 000000
2014-09-22 03:51:48,0.00,0.63,0.00,22.92,26.63,29.25,9.43,40.24,1003.91,2040.94,3143.08,3166.00,3403.98,499.60,490.29,26.42,0000 0000 0000 0000 000000
2014-09-22 03:56:50,0.01,0.63,0.00,22.93,26.62,29.24,9.45,40.27,1003.81,2040.95,3143.01,3165.98,3403.85,500.01,490.59,26.47,0000 0000 0000 0000 000000
2014-09-22 04:01:51,0.01,0.63,0.00,22.90,26.62,29.31,9.48,40.27,1003.67,2040.93,3142.95,3165.92,3403.29,499.86,490.38,26.51,0000 0000 0000 0000 000000
2014-09-22 04:06:52,0.04,0.63,0.00,22.89,26.62,29.40,9.51,40.20,1003.56,2040.95,3142.23,3165.45,3403.00,499.97,490.48,26.55,0000 0000 0000 0000 000000
2014-09-22 04:11:53,0.01,0.64,0.00,22.92,26.62,29.35,9.46,40.04,1003.48,2040.95,3142.00,3165.12,3402.98,500.34,490.69,26.59,0000 0000 0000 0000 000000
2014-09-22 04:16:54,0.01,0.64,0.00,22.96,26.60,29.31,9.44,40.06,1003.45,2040.95,3141.78,3165.01,3402.76,500.28,490.57,26.63,0000 0000 0000 0000 000000
2014-09-22 04:21:56,0.03,0.64,0.00,22.92,26.60,29.32,9.49,40.16,1003.45,2040.98,3141.09,3164.99,3402.07,500.10,490.53,26.68,0000 0000 0000 0000 000000
2014-09-22 04:26:57,0.00,0.64,0.00,22.90,26.60,29.28,9.43,40.05,1003.43,2040.97,3140.98,3164.97,3402.00,500.08,490.27,26.72,0000 0000 0000 0000 000000
2014-09-22 04:31:58,0.02,0.64,0.00,22.90,26.58,29.26,9.42,40.27,1003.43,2040.99,3140.51,3164.67,3401.96,499.81,490.23,26.76,0000 0000 0000 0000 000000
2014-09-22 04:36:59,0.03,0.64,0.00,22.89,26.57,29.23,9.40,40.05,1003.43,2040.99,3140.09,3164.14,3401.57,499.27,489.78,26.80,0000 0000 0000 0000 000000
2014-09-22 04:42:00,0.01,0.64,0.00,22.84,26.57,29.15,9.44,40.16,1003.43,2040.99,3139.97,3164.01,3401.04,499.95,490.48,26.84,0000 0000 0000 0000 000000
2014-09-22 04:47:01,0.01,0.64,0.00,22.84,26.57,29.13,9.43,39.99,1003.43,2040.99,3139.41,3164.00,3401.00,500.41,490.96,26.89,0000 0000 0000 0000 000000
2014-09-22 04:52:03,0.00,0.64,0.00,22.84,26.57,29.10,9.42,40.14,1003.43,2040.99,3139.02,3164.00,3400.92,500.18,490.90,26.93,0000 0000 0000 0000 000000
2014-09-22 04:57:04,0.02,0.64,0.00,22.85,26.55,29.08,9.46,40.23,1003.43,2040.99,3138.92,3163.91,3400.41,499.82,490.42,26.97,0000 0000 0000 0000 000000
2014-09-22 05:02:05,0.03,0.64,0.00,22.77,26.55,29.06,9.43,40.03,1003.43,2040.99,3138.28,3163.39,3400.03,499.89,490.54,27.01,0000 0000 0000 0000 000000
2014-09-22 05:07:06,0.01,0.64,0.00,22.76,26.55,29.03,9.49,40.21,1003.42,2041.00,3138.00,3163.03,3400.00,500.22,490.84,27.05,0000 0000 0000 0000 000000
2014-09-22 05:12:08,0.00,0.64,0.00,22.74,26.54,29.00,9.42,39.98,1003.39,2041.01,3138.00,3163.01,3400.00,499.74,490.40,27.09,0000 0000 0000 0000 000000
2014-09-22 05:17:08,0.00,0.64,0.00,22.74,26.53,29.01,9.44,40.25,1003.34,2041.01,3137.97,3163.00,3399.94,500.04,490.79,27.14,0000 0000 0000 0000 000000
2014-09-22 05:22:10,0.02,0.65,0.00,22.77,26.52,28.98,9.46,40.18,1003.16,2041.00,3137.57,3162.98,3399.46,500.05,490.63,27.18,0000 0000 0000 0000 000000
2014-09-22 05:27:11,0.01,0.65,0.00,22.73,26.52,28.99,9.49,40.19,1003.01,2041.00,3137.26,3162.90,3399.18,500.26,490.63,27.22,0000 0000 0000 0000 000000
2014-09-22 05:32:12,0.02,0.65,0.00,22.71,26.52,29.01,9.44,40.06,1003.00,2041.00,3137.02,3162.40,3399.02,499.91,490.38,27.26,0000 0000 0000 0000 000000
2014-09-22 05:37:13,0.00,0.65,0.00,22.70,26.52,29.10,9.44,40.17,1003.01,2041.00,3137.02,3162.11,3399.01,500.11,490.65,27.30,0000 0000 0000 0000 000000
2014-09-22 05:42:15,0.00,0.65,0.00,22.64,26.51,29.14,9.48,40.18,1002.98,2041.00,3137.00,3162.01,3398.99,499.95,490.78,27.35,0000 0000 0000 0000 000000
2014-09-22 05:47:16,0.00,0.65,0.00,22.61,26.50,29.15,9.49,40.38,1002.97,2041.00,3136.99,3162.00,3398.98,499.80,490.60,27.39,0000 0000 0000 0000 000000
2014-09-22 05:52:17,0.00,0.65,0.00,22.68,26.50,29.18,9.53,40.16,1002.97,2041.00,3136.95,3162.00,3398.97,500.42,490.93,27.43,0000 0000 0000 0000 000000
2014-09-22 05:57:18,0.02,0.65,0.00,22.72,26.50,29.11,9.47,40.13,1002.97,2041.01,3136.51,3162.00,3398.64,499.44,490.04,27.47,0000 0000 0000 0000 000000
2014-09-22 06:02:19,0.01,0.65,0.00,22.76,26.50,29.13,9.55,40.13,1002.96,2041.00,3136.07,3161.97,3398.24,500.11,490.56,27.51,0000 0000 0000 0000 000000
2014-09-22 06:07:20,0.02,0.65,0.00,22.81,26.50,29.08,9.47,40.16,1002.96,2041.00,3135.99,3161.57,3398.02,500.07,490.51,27.56,0000 0000 0000 0000 000000
2014-09-22 06:12:21,0.02,0.65,0.00,22.79,26.50,29.00,9.46,40.15,1002.95,2041.00,3135.60,3161.09,3397.98,499.89,490.16,27.60,0000 0000 0000 0000 000000
2014-09-22 06:17:22,0.01,0.65,0.00,22.64,26.50,28.99,9.44,40.13,1002.95,2041.01,3135.05,3161.00,3397.75,500.34,490.96,27.64,0000 0000 0000 0000 000000
2014-09-22 06:22:23,0.00,0.65,0.00,22.38,26.50,29.03,9.52,40.34,1002.94,2041.00,3135.00,3161.00,3397.07,500.24,491.34,27.68,0000 0000 0000 0000 000000
2014-09-22 06:27:24,0.01,0.65,0.00,22.38,26.50,28.99,9.48,40.33,1002.95,2041.00,3134.97,3160.93,3397.00,500.15,491.16,27.72,0000 0000 0000 0000 000000
2014-09-22 06:32:26,0.02,0.65,0.00,22.60,26.52,28.88,9.53,40.33,1002.95,2041.01,3134.76,3160.52,3396.99,500.12,490.87,27.77,0000 0000 0000 0000 000000
2014-09-22 06:37:27,0.03,0.65,0.00,22.62,26.55,28.88,9.69,40.30,1002.97,2041.00,3134.16,3160.02,3396.58,500.83,491.44,27.81,0000 0000 0000 0000 000000
2014-09-22 06:42:28,0.02,0.66,0.00,22.49,26.58,28.96,9.43,40.23,1002.96,2041.00,3133.94,3159.82,3396.01,499.61,490.52,27.85,0000 0000 0000 0000 000000
2014-09-22 06:47:29,0.04,0.66,0.00,22.71,26.62,29.07,9.51,40.14,1002.98,2040.98,3133.29,3159.06,3395.72,500.20,490.74,27.89,0000 0000 0000 0000 000000
2014-09-22 06:52:30,-0.00,0.66,0.00,23.22,26.68,29.16,9.40,40.17,1003.03,2040.89,3133.01,3158.89,3395.07,499.93,489.52,27.93,0000 0000 0000 0000 000000
2014-09-22 06:57:31,-0.01,0.66,0.00,23.27,26.74,29.26,9.45,40.13,1003.05,2040.30,3132.32,3158.10,3394.52,500.00,489.78,27.98,0000 0000 0000 0000 000000
2014-09-22 07:02:32,0.01,0.66,0.00,23.05,26.80,29.35,9.44,40.09,1003.01,2040.03,3131.72,3157.87,3393.96,499.85,490.02,28.02,0000 0000 0000 0000 000000
2014-09-22 07:07:33,0.05,0.66,0.00,22.88,26.85,29.47,9.48,40.13,1002.98,2040.01,3131.01,3157.11,3393.21,500.04,490.40,28.06,0000 0000 0000 0000 000000
2014-09-22 07:12:34,0.02,0.66,0.00,22.80,26.90,29.59,9.56,40.02,1002.96,2040.00,3130.25,3156.97,3392.91,500.33,490.88,28.10,0000 0000 0000 0000 000000
2014-09-22 07:17:36,0.04,0.66,0.00,22.73,26.93,29.64,9.50,40.15,1002.96,2039.99,3129.98,3156.28,3392.16,500.26,490.72,28.14,0000 0000 0000 0000 000000
2014-09-22 07:22:37,0.02,0.66,0.00,22.68,26.95,29.67,9.50,40.29,1002.95,2039.97,3129.26,3156.00,3391.96,499.91,490.30,28.18,0000 0000 0000 0000 000000
2014-09-22 07:27:38,0.02,0.66,0.00,22.68,26.97,29.67,9.50,40.19,1002.98,2039.91,3128.95,3155.79,3391.41,499.98,490.49,28.23,0000 0000 0000 0000 000000
2014-09-22 07:32:39,0.02,0.67,0.00,22.62,26.97,29.71,9.52,40.23,1003.01,2039.78,3128.13,3155.09,3391.01,500.18,490.90,28.27,0000 0000 0000 0000 000000
2014-09-22 07:37:40,-0.01,0.67,0.00,22.58,26.97,29.81,9.46,40.26,1003.01,2039.71,3128.00,3155.01,3390.99,499.45,490.47,28.31,0000 0000 0000 0000 000000
2014-09-22 07:42:41,-0.02,0.66,0.00,22.62,26.97,29.81,9.46,40.08,1003.04,2039.35,3127.66,3154.95,3390.56,499.76,490.65,28.35,0000 0000 0000 0000 000000
2014-09-22 07:47:42,0.02,0.66,0.00,22.59,26.97,29.81,9.56,40.22,1003.06,2039.18,3127.04,3154.52,3390.05,500.33,490.95,28.39,0000 0000 0000 0000 000000
2014-09-22 07:52:43,0.01,0.67,0.00,22.63,26.96,29.79,9.45,40.11,1003.08,2039.15,3126.98,3154.07,3390.00,499.95,490.82,28.44,0000 0000 0000 0000 000000
2014-09-22 07:57:44,0.02,0.67,0.00,22.57,26.95,29.75,9.44,40.18,1003.17,2039.29,3126.73,3154.00,3389.99,499.55,490.34,28.48,0000 0000 0000 0000 000000
2014-09-22 08:02:45,0.01,0.67,0.00,22.54,26.93,29.73,9.45,40.02,1003.31,2039.21,3126.13,3153.99,3389.75,499.52,490.66,28.52,0000 0000 0000 0000 000000
2014-09-22 08:07:47,0.02,0.67,0.00,22.54,26.92,29.72,9.52,40.21,1003.35,2039.33,3126.00,3153.91,3389.15,500.05,491.01,28.56,0000 0000 0000 0000 000000
2014-09-22 08:12:47,0.04,0.67,0.00,22.57,26.90,29.70,9.53,40.31,1003.35,2039.35,3125.77,3153.36,3389.00,499.99,490.77,28.60,0000 0000 0000 0000 000000
2014-09-22 08:17:48,0.04,0.67,0.00,22.54,26.89,29.68,9.46,40.30,1003.30,2039.60,3125.19,3153.06,3389.00,499.99,490.89,28.64,0000 0000 0000 0000 000000
2014-09-22 08:22:49,0.02,0.67,0.00,22.57,26.87,29.65,9.47,40.33,1003.38,2039.76,3125.01,3153.01,3388.95,499.65,490.53,28.69,0000 0000 0000 0000 000000
2014-09-22 08:27:50,0.02,0.67,0.00,22.62,26.86,29.57,9.50,40.23,1003.37,2039.83,3124.98,3153.00,3388.74,500.01,490.95,28.73,0000 0000 0000 0000 000000
2014-09-22 08:32:52,0.01,0.67,0.00,22.72,26.85,29.49,9.45,40.15,1003.35,2039.91,3124.87,3152.99,3388.32,500.03,490.59,28.77,0000 0000 0000 0000 000000
2014-09-22 08:37:53,0.02,0.67,0.00,22.78,26.84,29.45,9.46,40.02,1003.37,2039.96,3124.27,3152.95,3388.04,500.00,490.58,28.81,0000 0000 0000 0000 000000
2014-09-22 08:42:54,0.00,0.67,0.00,22.77,26.82,29.34,9.49,40.12,1003.37,2039.95,3124.01,3152.78,3388.00,500.40,490.94,28.85,0000 0000 0000 0000 000000
2014-09-22 08:47:56,0.02,0.68,0.00,22.72,26.82,29.33,9.46,40.23,1003.39,2039.96,3123.99,3152.28,3388.00,500.27,491.05,28.90,0000 0000 0000 0000 000000
2014-09-22 08:52:57,0.01,0.68,0.00,22.67,26.81,29.41,9.47,40.05,1003.40,2039.97,3123.70,3152.05,3387.94,500.12,490.88,28.94,0000 0000 0000 0000 000000
2014-09-22 08:57:58,0.02,0.68,0.00,22.62,26.80,29.47,9.46,40.20,1003.40,2039.98,3123.09,3152.00,3387.60,500.15,490.97,28.98,0000 0000 0000 0000 000000
2014-09-22 09:02:59,0.01,0.68,0.00,22.61,26.79,29.49,9.46,40.26,1003.42,2039.98,3123.00,3151.99,3387.08,499.95,490.83,29.02,0000 0000 0000 0000 000000
2014-09-22 09:08:00,0.00,0.68,0.00,22.55,26.77,29.48,9.43,40.21,1003.42,2039.99,3122.95,3151.98,3387.01,499.87,490.99,29.06,0000 0000 0000 0000 000000
2014-09-22 09:13:02,0.01,0.68,0.00,22.50,26.76,29.50,9.59,40.28,1003.41,2039.99,3122.37,3151.95,3387.00,500.04,491.08,29.11,0000 0000 0000 0000 000000
2014-09-22 09:18:03,0.01,0.68,0.00,22.46,26.75,29.46,9.43,40.15,1003.43,2039.99,3122.02,3151.73,3386.98,499.79,490.87,29.15,0000 0000 0000 0000 000000
2014-09-22 09:23:04,0.02,0.68,0.00,22.48,26.74,29.47,9.48,40.20,1003.42,2039.99,3121.97,3151.19,3386.70,499.86,490.93,29.19,0000 0000 0000 0000 000000
2014-09-22 09:28:06,0.02,0.68,0.00,22.46,26.72,29.47,9.50,40.19,1003.41,2039.99,3121.68,3151.02,3386.12,500.51,491.56,29.23,0000 0000 0000 0000 000000
2014-09-22 09:33:07,0.01,0.68,0.00,22.49,26.72,29.46,9.47,40.33,1003.36,2039.99,3121.16,3151.00,3386.01,500.23,491.12,29.27,0000 0000 0000 0000 000000
2014-09-22 09:38:08,0.00,0.68,0.00,22.48,26.70,29.43,9.53,40.27,1003.33,2039.99,3121.00,3151.00,3386.00,499.96,491.01,29.32,0000 0000 0000 0000 000000
2014-09-22 09:43:09,0.00,0.68,0.00,22.46,26.69,29.44,9.46,40.26,1003.34,2040.00,3120.99,3150.99,3386.00,499.72,490.87,29.36,0000 0000 0000 0000 000000
2014-09-22 09:48:10,0.00,0.68,0.00,22.46,26.67,29.42,9.54,40.46,1003.41,2040.00,3120.88,3150.96,3385.98,500.20,491.32,29.40,0000 0000 0000 0000 000000
2014-09-22 09:53:11,0.02,0.68,0.00,22.49,26.66,29.41,9.50,40.33,1003.38,2040.02,3120.45,3150.92,3385.95,500.14,491.22,29.44,0000 0000 0000 0000 000000
2014-09-22 09:58:12,0.01,0.68,0.00,22.45,26.65,29.40,9.50,40.38,1003.36,2040.02,3120.06,3150.76,3385.75,499.95,491.17,29.48,0000 0000 0000 0000 000000
2014-09-22 10:03:14,0.02,0.68,0.00,22.47,26.64,29.40,9.49,40.18,1003.33,2040.05,3120.01,3150.43,3385.47,499.89,490.99,29.53,0000 0000 0000 0000 000000
2014-09-22 10:08:15,0.01,0.68,0.00,22.50,26.62,29.40,9.48,40.34,1003.35,2040.15,3120.00,3150.31,3385.23,500.07,491.23,29.57,0000 0000 0000 0000 000000
2014-09-22 10:13:16,0.01,0.69,0.00,22.49,26.61,29.35,9.53,40.33,1003.36,2040.18,3119.98,3150.04,3385.03,500.13,491.13,29.61,0000 0000 0000 0000 000000
2014-09-22 10:18:17,0.02,0.69,0.00,22.49,26.60,29.35,9.47,40.18,1003.38,2040.25,3119.93,3150.01,3385.00,499.76,490.76,29.65,0000 0000 0000 0000 000000
2014-09-22 10:23:19,-0.01,0.69,0.00,22.46,26.59,29.36,9.50,40.26,1003.33,2040.18,3119.78,3150.00,3385.00,499.74,490.89,29.69,0000 0000 0000 0000 000000
2014-09-22 10:28:20,0.06,0.69,0.00,22.47,26.57,29.37,9.47,40.27,1003.25,2040.40,3119.05,3150.00,3385.00,500.18,491.18,29.73,0000 0000 0000 0000 000000
2014-09-22 10:33:21,0.00,0.69,0.00,22.47,26.57,29.33,9.45,40.30,1003.23,2040.52,3118.99,3149.99,3384.99,500.07,491.11,29.78,0000 0000 0000 0000 000000
2014-09-22 10:38:22,0.04,0.69,0.00,22.54,26.56,29.32,9.47,40.34,1003.16,2040.80,3118.88,3149.93,3384.78,500.07,490.91,29.82,0000 0000 0000 0000 000000
2014-09-22 10:43:23,0.02,0.69,0.00,22.56,26.55,29.31,9.33,40.23,1003.14,2040.87,3118.31,3149.86,3384.26,499.54,490.32,29.86,0000 0000 0000 0000 000000
2014-09-22 10:48:24,0.02,0.69,0.00,22.50,26.54,29.29,9.49,40.15,1003.13,2040.91,3118.05,3149.51,3384.10,499.94,491.10,29.90,0000 0000 0000 0000 000000
2014-09-22 10:53:25,0.01,0.69,0.00,22.47,26.52,29.30,9.53,40.32,1003.01,2040.94,3117.99,3149.05,3384.00,500.17,491.13,29.94,0000 0000 0000 0000 000000
2014-09-22 10:58:27,0.00,0.69,0.00,22.45,26.52,29.28,9.52,40.04,1003.09,2040.95,3117.99,3149.01,3384.01,500.47,491.31,29.99,0000 0000 0000 0000 000000
2014-09-22 11:03:28,0.00,0.69,0.00,22.43,26.51,29.27,9.53,40.15,1003.04,2040.96,3117.94,3149.00,3384.00,499.95,490.98,30.03,0000 0000 0000 0000 000000
2014-09-22 11:08:29,0.01,0.69,0.00,22.50,26.50,29.26,9.51,40.27,1003.19,2040.98,3117.40,3149.00,3384.00,500.00,491.04,30.07,0000 0000 0000 0000 000000
2014-09-22 11:13:30,0.01,0.69,0.00,22.45,26.49,29.28,9.52,40.19,1003.19,2040.98,3117.04,3148.98,3383.93,499.99,491.09,30.11,0000 0000 0000 0000 000000
2014-09-22 11:18:31,0.00,0.69,0.00,22.49,26.47,29.21,9.50,40.15,1003.22,2040.99,3117.00,3148.96,3383.79,499.80,490.73,30.15,0000 0000 0000 0000 000000
2014-09-22 11:23:32,0.00,0.69,0.00,22.55,26.47,29.14,9.58,40.18,1003.22,2040.97,3117.02,3148.90,3383.68,500.25,491.09,30.20,0000 0000 0000 0000 000000
2014-09-22 11:28:33,0.02,0.69,0.00,22.53,26.46,29.15,9.40,39.96,1003.28,2040.98,3116.99,3148.70,3383.13,500.09,491.19,30.24,0000 0000 0000 0000 000000
2014-09-22 11:33:34,0.03,0.70,0.00,22.60,26.45,29.17,9.53,40.10,1003.36,2040.99,3116.43,3148.25,3383.01,500.07,491.07,30.28,0000 0000 0000 0000 000000
2014-09-22 11:38:35,0.00,0.70,0.00,22.58,26.45,29.08,9.49,40.08,1003.34,2040.99,3116.01,3148.02,3382.99,500.34,491.28,30.32,0000 0000 0000 0000 000000
2014-09-22 11:43:37,0.00,0.70,0.00,22.59,26.43,29.11,9.47,40.15,1003.36,2040.99,3115.99,3148.00,3382.94,499.63,490.46,30.36,0000 0000 0000 0000 000000
2014-09-22 11:48:38,0.00,0.70,0.00,22.55,26.42,29.03,9.46,40.12,1003.34,2040.99,3115.99,3148.00,3382.93,499.66,490.60,30.41,0000 0000 0000 0000 000000
2014-09-22 11:53:39,0.00,0.70,0.00,22.50,26.42,28.94,9.38,40.16,1003.36,2040.99,3115.96,3147.99,3382.79,499.71,490.75,30.45,0000 0000 0000 0000 000000
2014-09-22 11:58:40,0.01,0.70,0.00,22.52,26.41,29.00,9.50,40.24,1003.42,2040.99,3115.98,3147.95,3382.64,500.10,490.99,30.49,0000 0000 0000 0000 000000
2014-09-22 12:03:42,0.02,0.70,0.00,22.60,26.40,28.91,9.49,40.17,1003.42,2040.99,3115.49,3147.91,3382.14,499.92,490.94,30.53,0000 0000 0000 0000 000000
2014-09-22 12:08:43,0.03,0.70,0.00,22.61,26.40,28.91,9.51,40.08,1003.43,2041.00,3115.02,3147.51,3382.02,500.30,491.25,30.57,0000 0000 0000 0000 000000
2014-09-22 12:13:44,0.01,0.70,0.00,22.62,26.39,28.89,9.46,40.08,1003.43,2041.00,3114.69,3147.10,3381.97,500.27,491.27,30.61,0000 0000 0000 0000 000000
2014-09-22 12:18:45,0.00,0.70,0.00,22.60,26.37,28.87,9.47,40.06,1003.43,2041.00,3114.51,3147.02,3381.97,500.06,490.92,30.66,0000 0000 0000 0000 000000
2014-09-22 12:23:46,0.02,0.70,0.00,22.59,26.37,28.86,9.50,39.97,1003.42,2041.01,3114.04,3147.00,3381.55,500.13,491.09,30.70,0000 0000 0000 0000 000000
2014-09-22 12:28:47,0.00,0.70,0.00,22.62,26.37,28.86,9.46,40.07,1003.41,2041.03,3113.96,3146.99,3381.11,500.00,490.84,30.74,0000 0000 0000 0000 000000
2014-09-22 12:33:48,0.02,0.70,0.00,22.60,26.37,28.87,9.50,40.10,1003.43,2041.03,3113.56,3146.98,3381.00,500.03,491.01,30.78,0000 0000 0000 0000 000000
2014-09-22 12:38:49,0.01,0.70,0.00,22.60,26.36,28.87,9.47,40.20,1003.43,2041.06,3113.03,3146.90,3381.00,499.90,490.94,30.82,0000 0000 0000 0000 000000
2014-09-22 12:43:50,0.02,0.70,0.00,22.65,26.35,28.87,9.46,40.08,1003.36,2041.06,3112.99,3146.26,3380.88,500.16,490.88,30.87,0000 0000 0000 0000 000000
2014-09-22 12:48:52,0.02,0.70,0.00,22.68,26.35,28.87,9.44,40.14,1003.31,2041.02,3112.94,3146.04,3380.61,499.62,490.35,30.91,0000 0000 0000 0000 000000
2014-09-22 12:53:53,0.02,0.71,0.00,22.65,26.35,28.86,9.46,40.06,1003.37,2041.04,3112.30,3146.00,3380.02,499.42,490.26,30.95,0000 0000 0000 0000 000000
2014-09-22 12:58:54,0.00,0.71,0.00,22.63,26.35,28.85,9.39,40.18,1003.39,2041.04,3112.01,3145.98,3380.00,499.85,490.77,30.99,0000 0000 0000 0000 000000